Location: ????????
(55.4000°N, 39.1167°E)
Time: 14:38:54
(UTC+00:00)

ATLAS 3B R/B - Pass Details

Date: 19 May 2025
Orbit: 935 x 1258 km, 63.8° (Epoch: 20 June)

Event Time Altitude Azimuth Distance (km) Brightness Sun altitude
Rises 23:18:37 0° 259° (WSW) 4,086 5.4 -10.5°
Reaches altitude 10° 23:21:25 10° 264° (W) 3,159 4.8 -10.3°
Maximum altitude 23:28:56 54° 341° (NNW) 1,494 3.8 -9.8°
Drops below altitude 10° 23:36:40 10° 58° (ENE) 3,249 6.4 -9.2°
Sets 23:39:35 0° 63° (ENE) 4,209 7.0 -9.0°
